Regional Weather Roundup
Issued by NWS New Orleans/Baton Rouge, LA

Home | Current Version | Previous Version | Graphics & Text | Print | Product List | Glossary On
Versions: 1 2 3 4 5 6 7 8 9 10 11 12 13 14 15 16 17 18 19 20 21 22 23 24 25 26 27 28 29 30 31 32 33 34 35 36 37 38 39 40 41 42 43 44 45 46 47 48 49 50
312
ASUS44 KLIX 310410
RWRLIX
NEW ORLEANS REGIONAL WEATHER ROUNDUP
NATIONAL WEATHER SERVICE NEW ORLEANS LA
1100 PM CDT THU OCT 30 2014

NOTE: "FAIR" INDICATES FEW OR NO CLOUDS BELOW 12,000 FEET WITH NO
      SIGNIFICANT WEATHER AND/OR OBSTRUCTIONS TO VISIBILITY.
      SKY/WX - SKY CONDITION AND SIGNIFICANT WEATHER.
      TMP - AIR TEMPERATURE.     DP    - DEWPOINT TEMPERATURE.
      RH  - RELATIVE HUMIDITY.   PRES  - PRESSURE.
      HI  - HEAT INDEX.          WCI   - WIND CHILL INDEX.

*  THESE STATIONS ARE NOT NWS OR FAA STATIONS AND ARE NOT UNDER
   NWS QUALITY CONTROL.

LAZ038-040-048-061>063-065>067-069-310500-
SOUTHEAST LOUISIANA

CITY           SKY/WX    TMP DP  RH WIND       PRES   REMARKS
N.O. AUDUBON     N/A     59  53  81 MISG        N/A
N.O. INTL ARPT CLEAR     58  51  78 W3        30.05S
N.O. LAKEFRONT CLEAR     69  46  43 N10       30.05S
N.O. DOWNTOWN*   N/A     68  43  40 N5        30.06S
SLIDELL        CLEAR     50  46  86 CALM      30.05S
BATON ROUGE    CLEAR     52  48  86 CALM      30.07R
BOOTHVILLE     CLEAR     66  50  56 NW5       30.05R
BELLE CHASSE   CLEAR     52  47  83 CALM      30.04F
BOGALUSA*        N/A     48  44  86 CALM      30.07S
NEW ROADS*       N/A     51  48  90 CALM      30.08S
GONZALES*        N/A     51  51 100 CALM      30.07R
HAMMOND*       CLEAR     50  46  87 CALM      30.08R
HOUMA*         CLEAR     52  50  93 CALM      30.06S
PORT FOURCHON* CLEAR     64  52  63 N5        30.09S

$$

MSZ070-080>082-310500-
SOUTHERN MISSISSIPPI

CITY           SKY/WX    TMP DP  RH WIND       PRES   REMARKS
MCCOMB         CLEAR     49  43  80 NW5       30.07R
GULFPORT       CLEAR     52  46  80 CALM      30.04S
BILOXI         CLEAR     59  44  56 CALM      30.04S
PASCAGOULA     CLEAR     43  41  93 CALM      30.04S

$$

COASTAL OBSERVATIONS
LAKE AND NEARSHORE STATIONS

STATION/POSITION TIME  TEMP    WIND        PRES    WAVE
                       AIR SEA DIR/SP/G            HT/PER
                 (UTC) (F)     (DEG/KT/KT) (MB)    (FT/S)
PASCAGOULA       0400   57     340/  5/  6 1016.6
WAVELAND YACHT   0400   62     310/  3/  4 1016.4
GRAND ISLE       0400   70 74  350/  7/ 10 1018.1
SOUTHWEST PASS   0400   69 77              1017.7
NEW CANAL        0400   71 71   20/  8/ 10 1017.9
SHELL BEACH      0400   70 68   20/ 11/ 13 1017.1

OFFSHORE STATIONS

STATION/POSITION TIME  TEMP    WIND        PRES    WAVE
                       AIR SEA DIR/SP/G            HT/PER
                 (UTC) (F)     (DEG/KT/KT) (MB)    (FT/S)
64 S DAUPHIN ISL 0324   71 78  360/ 14/ 17 1016.9    3/ 6

$$




USA.gov is the U.S. government's official web portal to all federal, state and local government web resources and services.